[Date Prev][Date Next][Thread Prev][Thread Next] - [Date Index][Thread Index][Author Index]
2 Line ISS Keps 11-18
- Subject: [sarex] 2 Line ISS Keps 11-18
- From: "Dave Larsen Ph.D." <doc@xxxxxxxxxxx>
- Date: Mon, 18 Nov 2002 02:35:25 -0800
ISS
1 25544U 98067A 02322.19806758 .00034090 00000-0 42998-3 0 3910
2 25544 51.6390 359.7011 0013859 149.6733 293.8597 15.59151751227993
----
Via the sarex mailing list at AMSAT.ORG courtesy of AMSAT-NA.
To unsubscribe, send "unsubscribe sarex" to Majordomo@amsat.org
AMSAT Home